Banksmeadow Real Estate, NSW, 2019 Bayside (NSW)

Thinking about buying in Banksmeadow? Now could not be a better time, with a whopping 1439 properties either residential or commercial there's certainly plenty to choose from.

The average property price for this area is $1,134,000 with prices in this suburb ranging from $1,134,000 to $1,134,000.

Distance to the coast is 0 Km.

About

Local Schools


None within suburb boundary

(While the above schools are located with the suburb of Banksmeadow there may also be nearby schools whose catchments cover this suburb)

Local Crime Rates


Average Local Climate by month


(mm)
RAIN
Min (°C)
TEMP
Max (°C)
TEMP
Min (%)
HUMIDITY
Max (%)
HUMIDITY
(m/sec)
WIND
(MJ/sq m)
SOLAR
Jan2.420.328.550.988.36.223.1
Feb4.120.227.552.787.86.020.1
Mar4.918.826.451.487.45.616.5
Apr3.515.623.949.486.95.014.0
May2.112.021.145.583.25.111.4
Jun4.110.018.350.886.15.29.2
Jul2.18.918.641.880.85.210.5
Aug2.09.419.636.878.15.713.2
Sept1.512.322.436.881.25.817.5
Oct2.014.824.141.484.16.021.0
Nov2.617.125.845.785.66.223.3
Dec2.018.927.446.786.46.224.6

source: Australian Government Bureau of Meteorology

Recently Sold Properties / House Prices

29-04-2022 $1,155,000 1 / 9 MEADOW WAY BANKSMEADOW 2019
29-04-2022 $25,430,000 1 GREEN ST BANKSMEADOW 2019
29-04-2022 $25,430,000 1 GREEN ST BANKSMEADOW 2019
29-04-2022 $25,430,000 1 GREEN ST BANKSMEADOW 2019
30-03-2022 $852,500 35 / 8 JULLIAN CL BANKSMEADOW 2019
25-03-2022 $1,097,000 31 / 8 JULLIAN CL BANKSMEADOW 2019
04-03-2022 $8,350,000 7 GREENFIELD ST BANKSMEADOW 2019
14-02-2022 $2,432,375 22 / 13 BAKER ST BANKSMEADOW 2019
14-02-2022 $2,432,375 22 / 13 BAKER ST BANKSMEADOW 2019
04-02-2022 $2,211,250 21 / 13 BAKER ST BANKSMEADOW 2019
04-02-2022 $2,211,250 21 / 13 BAKER ST BANKSMEADOW 2019
04-02-2022 $2,088,000 18 / 13 BAKER ST BANKSMEADOW 2019
04-02-2022 $2,088,000 18 / 13 BAKER ST BANKSMEADOW 2019
21-01-2022 $1,400,000 12 / 15 MEADOW WAY BANKSMEADOW 2019
21-01-2022 $1,250,000 41 GREEN ST BANKSMEADOW 2019
21-01-2022 $1,250,000 41 GREEN ST BANKSMEADOW 2019
21-01-2022 $1,250,000 41 GREEN ST BANKSMEADOW 2019
21-01-2022 $1,250,000 41 GREEN ST BANKSMEADOW 2019
21-01-2022 $1,250,000 41 GREEN ST BANKSMEADOW 2019
22-12-2021 $1,075,000 37 / 8 JULLIAN CL BANKSMEADOW 2019
20-12-2021 $3,850,000 27 / 13 BAKER ST BANKSMEADOW 2019
20-12-2021 $3,850,000 27 / 13 BAKER ST BANKSMEADOW 2019
20-12-2021 $1,771,000 29 / 13 BAKER ST BANKSMEADOW 2019
20-12-2021 $1,771,000 29 / 13 BAKER ST BANKSMEADOW 2019
15-12-2021 $673,500 14 / 10 MEADOW WAY BANKSMEADOW 2019
14-12-2021 $1,716,000 11 / 13 BAKER ST BANKSMEADOW 2019
14-12-2021 $1,716,000 11 / 13 BAKER ST BANKSMEADOW 2019
08-12-2021 $1,859,000 12 / 13 BAKER ST BANKSMEADOW 2019
08-12-2021 $1,859,000 12 / 13 BAKER ST BANKSMEADOW 2019
03-12-2021 $2,084,500 17 / 13 BAKER ST BANKSMEADOW 2019
03-12-2021 $2,084,500 17 / 13 BAKER ST BANKSMEADOW 2019
28-10-2021 $33,000,000 81 BEAUCHAMP RD BANKSMEADOW 2019
21-10-2021 $3,080,000 15 / 13 BAKER ST BANKSMEADOW 2019
21-10-2021 $3,080,000 15 / 13 BAKER ST BANKSMEADOW 2019
21-10-2021 $3,080,000 15 / 13 BAKER ST BANKSMEADOW 2019
21-10-2021 $3,080,000 15 / 13 BAKER ST BANKSMEADOW 2019
06-10-2021 $1,670,000 13 / 13 BAKER ST BANKSMEADOW 2019
06-10-2021 $1,670,000 13 / 13 BAKER ST BANKSMEADOW 2019
06-10-2021 $1,670,000 13 / 13 BAKER ST BANKSMEADOW 2019
06-10-2021 $1,670,000 13 / 13 BAKER ST BANKSMEADOW 2019
05-10-2021 $1,800,000 14 / 8 JULLIAN CL BANKSMEADOW 2019
30-09-2021 $1,507,000 21 / 8 JULLIAN CL BANKSMEADOW 2019
14-09-2021 $1,485,000 1 / 7 JULLIAN CL BANKSMEADOW 2019
08-09-2021 $1,680,000 14 / 13 BAKER ST BANKSMEADOW 2019
08-09-2021 $1,680,000 14 / 13 BAKER ST BANKSMEADOW 2019
08-09-2021 $1,680,000 14 / 13 BAKER ST BANKSMEADOW 2019
08-09-2021 $1,680,000 14 / 13 BAKER ST BANKSMEADOW 2019
31-08-2021 $2,266,000 19 / 13 BAKER ST BANKSMEADOW 2019
31-08-2021 $2,266,000 19 / 13 BAKER ST BANKSMEADOW 2019
31-08-2021 $5,000,000 71 STEPHEN RD BOTANY 2019

Internet Speed

  • Fibre to the Basement (vectored or non-vectored)
  • Fibre to the Curb
  • Fibre to the Premises
  • Satellite

Residz covers 12m+ Australian properties and brings together a wealth of data to give you a better understanding of an area. From crime and schools to bush fire, flood risk and more. Begin your search for properties for sale or learn more about where you currently reside. Residz is an exciting next-generation Real Estate platform getting better by the day!